User: anonymous   Login
Location: Unspecified
(0.0000°N, 0.0000°E)
Time: 21:29:46
(UTC+02:00)
Language:

ISS - Orbit

View from above orbital plane
View from above orbital plane
View from above satellite
View from above satellite

Ground track
Ground track

The orbit data is extracted from the following two-line orbital elements,

1 25544U 98067A   16177.56885005  .00004725  00000-0  77030-4 0  9998
2 25544  51.6442  16.2153 0000873  22.9586  21.6629 15.54680352  6294
Epoch (UTC): 25 June 2016 13:39:08
Eccentricity: 0.0000873
inclination: 51.6442°
perigee height: 402 km
apogee height: 403 km
right ascension of ascending node: 16.2153°
argument of perigee: 22.9586°
revolutions per day: 15.54680352
mean anomaly at epoch: 21.6629°
orbit number at epoch: 629

The dashed part of the orbit path shows where the satellite is in the earth's shadow,  

DLR